Regional Weather Roundup
Issued by NWS

Home | Current Version | Previous Version | Text Only | Print | Product List | Glossary On
Versions: 1 2 3 4 5 6 7 8 9 10 11 12 13 14 15 16 17 18 19 20 21 22 23 24 25 26 27 28 29 30 31 32 33 34 35 36 37 38 39 40 41 42 43 44 45 46 47 48 49 50
000
ASUS43 KBIS 181602
RWRND

NORTH DAKOTA REGIONAL WEATHER ROUNDUP
NATIONAL WEATHER SERVICE BISMARCK ND
1100 AM CDT WED OCT 18 2017

NOTE: "FAIR" INDICATES FEW OR NO CLOUDS BELOW 12,000 FEET WITH NO
SIGNIFICANT WEATHER AND/OR OBSTRUCTIONS TO VISIBILITY.


NDZ001>003-009>011-017-181700-
NORTHWEST NORTH DAKOTA

CITY           SKY/WX    TMP DP  RH WIND       PRES   REMARKS
WILLISTON      SUNNY     49  21  33 W21G26    29.96R
MINOT          SUNNY     51  17  26 W25G37    29.85R
MINOT AFB      SUNNY     50  18  28 W31G38    29.82R
$$

NDZ018>021-031>035-040>046-181700-
SOUTHWEST NORTH DAKOTA

CITY           SKY/WX    TMP DP  RH WIND       PRES   REMARKS
BISMARCK       SUNNY     53  23  31 NW18G25   29.96R
DICKINSON      SUNNY     50  24  36 W18       29.99R
GARRISON         N/A     51  16  24 NW29G36   29.91R
HETTINGER ARPT SUNNY     50  24  36 NW17      30.03R
$$

NDZ004>008-012>016-024-026-027-054-181700-
NORTHEAST NORTH DAKOTA

CITY           SKY/WX    TMP DP  RH WIND       PRES   REMARKS
GRAND FORKS    CLOUDY    55  30  38 W15G24    29.76R
GRND FRKS AFB  CLOUDY    54  26  34 W20G25    29.77R
DEVILS LAKE    SUNNY     51  23  33 W28G37    29.80R
$$

NDZ022-023-025-028>030-036>039-047>053-181700-
SOUTHEAST NORTH DAKOTA

CITY           SKY/WX    TMP DP  RH WIND       PRES   REMARKS
FARGO          CLOUDY    60  33  36 W25G36    29.84R
JAMESTOWN      CLOUDY    53  24  32 NW18G31   29.87R
$$




USA.gov is the U.S. government's official web portal to all federal, state and local government web resources and services.